User: anonymous   Login
Location: Oshawa
(43.9000°N, 78.8670°W)
Time: 04:13:50
(UTC-05:00)
Language:

CARTOSAT-1 - Orbit

View from above orbital plane
View from above orbital plane
View from above satellite
View from above satellite

Ground track
Ground track

The orbit data is extracted from the following two-line orbital elements,

1 28649U 05017A   17023.40440242 -.00000608  00000-0 -67680-4 0  9992
2 28649  97.8765  99.9754 0002623 120.1530 239.9946 14.83432976634519
Epoch (UTC): 23 January 2017 09:42:20
Eccentricity: 0.0002623
inclination: 97.8765°
perigee height: 616 km
apogee height: 620 km
right ascension of ascending node: 99.9754°
argument of perigee: 120.1530°
revolutions per day: 14.83432976
mean anomaly at epoch: 239.9946°
orbit number at epoch: 63451

The dashed part of the orbit path shows where the satellite is in the earth's shadow,  

DLR